• In Belarus
  • List of Countries
  • For 7 days
  • Water Temperature
  • Weather Map
  • Weather Widgets
  • user-avatar
    Login

    Hourly Weather Abomey

    Today, 26 January, Sunday

    Time Temperature Precipitation Wind Pressure Humidity
    00:00 +20°C° 0 mm 0 mps 739 mmHg 24%
    01:00 +20°C° 0 mm 0 mps 739 mmHg 24%
    02:00 +20°C° 0 mm 0 mps 738 mmHg 23%
    03:00 +21°C° 0 mm 1 mps 738 mmHg 23%
    04:00 +21°C° 0 mm 1 mps 739 mmHg 22%
    05:00 +21°C° 0 mm 1 mps 739 mmHg 21%
    06:00 +20°C° 0 mm 1 mps 739 mmHg 23%
    07:00 +23°C° 0 mm 2 mps 740 mmHg 18%
    08:00 +26°C° 0 mm 2 mps 740 mmHg 14%
    09:00 +29°C° 0 mm 2 mps 741 mmHg 10%
    10:00 +32°C° 0 mm 2 mps 741 mmHg 8%
    11:00 +35°C° 0 mm 2 mps 740 mmHg 7%
    12:00 +38°C° 0 mm 2 mps 740 mmHg 6%
    13:00 +39°C° 0 mm 2 mps 739 mmHg 6%
    14:00 +39°C° 0 mm 2 mps 738 mmHg 6%
    15:00 +40°C° 0 mm 1 mps 737 mmHg 5%
    16:00 +37°C° 0 mm 1 mps 737 mmHg 7%
    17:00 +34°C° 0 mm 1 mps 737 mmHg 8%
    18:00 +31°C° 0 mm 1 mps 737 mmHg 10%
    19:00 +29°C° 0 mm 1 mps 738 mmHg 19%
    20:00 +27°C° 0 mm 2 mps 738 mmHg 28%
    21:00 +24°C° 0 mm 2 mps 739 mmHg 37%
    22:00 +24°C° 0 mm 2 mps 739 mmHg 41%
    23:00 +23°C° 0 mm 2 mps 739 mmHg 46%

    Tomorrow, 27 January, Monday

    Time Temperature Precipitation Wind Pressure Humidity
    00:00 +21°C° 0 mm 2 mps 739 mmHg 50%
    01:00 +22°C° 0 mm 1 mps 738 mmHg 52%
    02:00 +21°C° 0 mm 1 mps 738 mmHg 54%
    03:00 +19°C° 0 mm 0 mps 738 mmHg 57%
    04:00 +18°C° 0 mm 0 mps 738 mmHg 57%
    05:00 +18°C° 0 mm 0 mps 738 mmHg 58%
    06:00 +18°C° 0 mm 0 mps 739 mmHg 58%
    07:00 +23°C° 0 mm 1 mps 739 mmHg 48%
    08:00 +27°C° 0 mm 1 mps 740 mmHg 39%
    09:00 +30°C° 0 mm 1 mps 741 mmHg 29%
    10:00 +33°C° 0 mm 1 mps 740 mmHg 23%
    11:00 +37°C° 0 mm 1 mps 740 mmHg 17%
    12:00 +41°C° 0 mm 1 mps 739 mmHg 11%
    13:00 +41°C° 0 mm 1 mps 739 mmHg 10%
    14:00 +41°C° 0 mm 1 mps 738 mmHg 9%
    15:00 +42°C° 0 mm 1 mps 737 mmHg 8%
    16:00 +39°C° 0 mm 1 mps 737 mmHg 13%
    17:00 +36°C° 0 mm 2 mps 737 mmHg 18%
    18:00 +32°C° 0 mm 2 mps 737 mmHg 23%
    19:00 +30°C° 0 mm 3 mps 737 mmHg 37%
    20:00 +28°C° 0 mm 3 mps 738 mmHg 52%
    21:00 +25°C° 0 mm 3 mps 738 mmHg 67%
    22:00 +25°C° 0 mm 2 mps 738 mmHg 71%
    23:00 +24°C° 0 mm 2 mps 739 mmHg 75%

    Day after tomorrow, 28 January, Tuesday

    Time Temperature Precipitation Wind Pressure Humidity
    00:00 +24°C° 0 mm 2 mps 739 mmHg 80%
    01:00 +23°C° 0 mm 1 mps 738 mmHg 83%
    02:00 +23°C° 0 mm 1 mps 738 mmHg 85%
    03:00 +20°C° 0 mm 0 mps 738 mmHg 88%
    04:00 +20°C° 0 mm 0 mps 738 mmHg 89%
    05:00 +22°C° 0 mm 1 mps 739 mmHg 90%
    06:00 +22°C° 0 mm 1 mps 739 mmHg 91%
    07:00 +24°C° 0 mm 1 mps 740 mmHg 79%
    08:00 +27°C° 0 mm 2 mps 740 mmHg 66%
    09:00 +30°C° 0 mm 2 mps 741 mmHg 54%
    10:00 +34°C° 0 mm 2 mps 740 mmHg 43%
    11:00 +37°C° 0 mm 2 mps 740 mmHg 32%
    12:00 +40°C° 0 mm 1 mps 739 mmHg 22%
    13:00 +40°C° 0 mm 1 mps 739 mmHg 20%
    14:00 +41°C° 0 mm 1 mps 738 mmHg 18%
    15:00 +41°C° 0 mm 1 mps 737 mmHg 16%
    16:00 +38°C° 0 mm 2 mps 737 mmHg 24%
    17:00 +36°C° 0 mm 3 mps 737 mmHg 33%
    18:00 +33°C° 0 mm 4 mps 737 mmHg 41%
    19:00 +30°C° 0 mm 4 mps 737 mmHg 51%
    20:00 +28°C° 0 mm 3 mps 738 mmHg 61%
    21:00 +27°C° 0 mm 3 mps 738 mmHg 71%
    22:00 +26°C° 0 mm 3 mps 738 mmHg 75%
    23:00 +26°C° 0 mm 2 mps 738 mmHg 78%

    29 January, Wednesday

    Time Temperature Precipitation Wind Pressure Humidity
    00:00 +25°C° 0 mm 2 mps 738 mmHg 82%
    01:00 +25°C° 0 mm 1 mps 738 mmHg 84%
    02:00 +24°C° 0 mm 1 mps 738 mmHg 87%
    03:00 +22°C° 0 mm 0 mps 737 mmHg 90%
    04:00 +22°C° 0 mm 0 mps 738 mmHg 91%
    05:00 +21°C° 0 mm 0 mps 738 mmHg 92%
    06:00 +21°C° 0 mm 0 mps 738 mmHg 93%
    07:00 +24°C° 0 mm 0 mps 739 mmHg 80%
    08:00 +27°C° 0 mm 0 mps 740 mmHg 67%
    09:00 +30°C° 0 mm 0 mps 740 mmHg 54%
    10:00 +34°C° 0 mm 1 mps 740 mmHg 43%
    11:00 +37°C° 0 mm 1 mps 739 mmHg 33%
    12:00 +40°C° 0 mm 2 mps 739 mmHg 22%
    13:00 +40°C° 0 mm 2 mps 738 mmHg 20%
    14:00 +41°C° 0 mm 2 mps 737 mmHg 17%
    15:00 +41°C° 0 mm 2 mps 737 mmHg 14%
    16:00 +39°C° 0 mm 2 mps 737 mmHg 20%
    17:00 +37°C° 0 mm 2 mps 737 mmHg 26%
    18:00 +34°C° 0 mm 3 mps 737 mmHg 32%
    19:00 +31°C° 0 mm 2 mps 737 mmHg 48%
    20:00 +29°C° 0 mm 2 mps 738 mmHg 64%
    21:00 +26°C° 0 mm 2 mps 738 mmHg 80%
    22:00 +26°C° 0 mm 2 mps 738 mmHg 83%
    23:00 +25°C° 0 mm 2 mps 738 mmHg 87%

    30 January, Thursday

    Time Temperature Precipitation Wind Pressure Humidity
    00:00 +25°C° 0 mm 1 mps 738 mmHg 90%
    01:00 +24°C° 0 mm 1 mps 738 mmHg 91%
    02:00 +24°C° 0 mm 1 mps 738 mmHg 91%
    03:00 +22°C° 0 mm 0 mps 737 mmHg 92%
    04:00 +21°C° 0 mm 0 mps 738 mmHg 93%
    05:00 +21°C° 0 mm 0 mps 738 mmHg 93%
    06:00 +21°C° 0 mm 0 mps 738 mmHg 93%
    07:00 +24°C° 0 mm 0 mps 739 mmHg 80%
    08:00 +27°C° 0 mm 0 mps 740 mmHg 67%
    09:00 +30°C° 0 mm 0 mps 740 mmHg 54%
    10:00 +34°C° 0 mm 1 mps 740 mmHg 43%
    11:00 +36°C° 0 mm 1 mps 739 mmHg 31%
    12:00 +40°C° 0 mm 2 mps 739 mmHg 19%
    13:00 +40°C° 0 mm 2 mps 738 mmHg 16%
    14:00 +41°C° 0 mm 2 mps 738 mmHg 13%
    15:00 +42°C° 0 mm 2 mps 737 mmHg 10%
    16:00 +39°C° 0 mm 2 mps 737 mmHg 19%
    17:00 +36°C° 0 mm 3 mps 737 mmHg 27%
    18:00 +33°C° 0 mm 3 mps 737 mmHg 36%
    19:00 +30°C° 0 mm 3 mps 737 mmHg 51%
    20:00 +28°C° 0 mm 3 mps 738 mmHg 67%
    21:00 +26°C° 0 mm 3 mps 739 mmHg 83%
    22:00 +26°C° 0 mm 3 mps 739 mmHg 86%
    23:00 +25°C° 0 mm 2 mps 739 mmHg 90%

    31 January, Friday

    Time Temperature Precipitation Wind Pressure Humidity
    00:00 +25°C° 0 mm 2 mps 739 mmHg 93%
    01:00 +25°C° 0 mm 2 mps 739 mmHg 94%
    02:00 +24°C° 0 mm 1 mps 738 mmHg 95%
    03:00 +24°C° 0 mm 1 mps 738 mmHg 97%
    04:00 +24°C° 0 mm 1 mps 738 mmHg 97%
    05:00 +22°C° 0 mm 0 mps 739 mmHg 97%
    06:00 +22°C° 0 mm 0 mps 739 mmHg 97%
    07:00 +25°C° 0 mm 1 mps 740 mmHg 88%
    08:00 +27°C° 0 mm 1 mps 740 mmHg 79%
    09:00 +29°C° 0 mm 2 mps 741 mmHg 70%
    10:00 +31°C° 0 mm 2 mps 741 mmHg 59%
    11:00 +34°C° 0 mm 2 mps 740 mmHg 49%
    12:00 +36°C° 0 mm 1 mps 740 mmHg 38%
    13:00 +37°C° 0 mm 1 mps 739 mmHg 33%
    14:00 +39°C° 0 mm 1 mps 738 mmHg 28%
    15:00 +40°C° 0 mm 1 mps 738 mmHg 23%
    16:00 +38°C° 0 mm 2 mps 738 mmHg 28%
    17:00 +36°C° 0 mm 2 mps 738 mmHg 33%
    18:00 +34°C° 0 mm 3 mps 737 mmHg 38%
    19:00 +31°C° 0 mm 3 mps 738 mmHg 50%
    20:00 +29°C° 0 mm 3 mps 739 mmHg 63%
    21:00 +27°C° 0 mm 3 mps 739 mmHg 75%
    22:00 +26°C° 0 mm 3 mps 739 mmHg 80%
    23:00 +26°C° 0 mm 2 mps 739 mmHg 85%
    Show more